San Antonio Stinson, TX

4:26 AM CST on February 25, 2018 (GMT -0600)
Stinson Municipal

Weather History for KSSF - January, 2013

Change the Weather History Date:

Wednesday, January 9, 2013

  Actual Average Record
Temperature  
Mean Temperature 56 °F -  
Max Temperature 64 °F 62 °F 81 °F (2009)
Min Temperature 48 °F 41 °F 30 °F (1999)
Degree Days  
Heating Degree Days 9    
Growing Degree Days 6 (Base 50)    
Moisture  
Dew Point 55 °F    
Average Humidity 94    
Maximum Humidity 100    
Minimum Humidity 77    
Precipitation  
Precipitation 2.34 in - - ()
Sea Level Pressure  
Sea Level Pressure 29.94 in    
Wind  
Wind Speed 10 mph (NNW)    
Max Wind Speed 17 mph    
Max Gust Speed 26 mph    
Visibility 6 miles    
Events Rain , Thunderstorm    
Averages and records for this station are not official NWS values.
T = Trace of Precipitation, MM = Missing Value Source: NWS Daily Summary

Daily Weather History Graph

Daily Weather History Graph

Search for Another Location

Airport or City:

Trip Planner

Search our weather history database for the weather conditions in past years. The results will help you decide how hot, cold, wet, or windy it might be!

Date:

Astronomy

Jan. 09, 2013 Rise Set
Actual Time 7:29 AM CST 5:53 PM CST
Civil Twilight 7:03 AM CST 6:18 PM CST
Nautical Twilight 6:34 AM CST 6:48 PM CST
Astronomical Twilight 6:05 AM CST 7:17 PM CST
Moon 5:09 AM CST (1/9) 3:56 PM CST (1/9)
Length of Visible Light 11h 15m
Length of Day
10h 23m
Waning Crescent, 6% of the Moon is Illuminated
Jan 9
Waning Crescent
Jan 11
New
Jan 18
First Quarter
Jan 26
Full
Feb 3
Last Quarter

Hourly Weather History & Observations

Time (CST) Temp. Dew Point Humidity Pressure Visibility Wind Dir Wind Speed Gust Speed Precip Events Conditions
12:14 AM 53.6 °F 53.6 °F 100% 29.93 in 1.8 mi WNW 15.0 mph - 0.39 in Rain , Thunderstorm Heavy Rain
12:21 AM 53.6 °F 53.6 °F 100% 29.94 in 2.0 mi NW 11.5 mph - 0.41 in Rain , Thunderstorm Heavy Rain
12:27 AM 53.6 °F 53.6 °F 100% 29.93 in 1.8 mi North 11.5 mph - 0.48 in Rain Heavy Rain
12:46 AM 53.6 °F 53.6 °F 100% 29.94 in 1.2 mi NNW 8.1 mph - 0.77 in Rain Heavy Rain
12:53 AM 54.0 °F 54.0 °F 100% 29.95 in 1.2 mi NNW 5.8 mph - 0.86 in Rain Heavy Rain
12:59 AM 55.4 °F 55.4 °F 100% 29.95 in 1.8 mi NW 6.9 mph - 0.04 in Rain , Thunderstorm Heavy Rain
1:09 AM 55.4 °F 55.4 °F 100% 29.93 in 1.0 mi NNE 12.7 mph 18.4 mph 0.25 in Rain , Thunderstorm Heavy Rain
1:20 AM 55.4 °F 55.4 °F 100% 29.92 in 1.2 mi North 11.5 mph 17.3 mph 0.42 in Rain Heavy Rain
1:46 AM 57.2 °F 57.2 °F 100% 29.91 in 2.0 mi North 15.0 mph 24.2 mph 0.72 in Rain Heavy Rain
1:53 AM 57.0 °F 57.0 °F 100% 29.90 in 2.0 mi NNE 17.3 mph 21.9 mph 0.77 in Rain Heavy Rain
2:01 AM 57.2 °F 55.4 °F 94% 29.90 in 1.8 mi North 15.0 mph 26.5 mph 0.06 in Rain Heavy Rain
2:09 AM 55.4 °F 55.4 °F 100% 29.91 in 2.0 mi NNE 15.0 mph 23.0 mph 0.10 in Rain Heavy Rain
2:38 AM 55.4 °F 55.4 °F 100% 29.90 in 4.0 mi NNE 12.7 mph - 0.19 in Rain Light Rain
2:53 AM 55.9 °F 55.0 °F 97% 29.91 in 4.0 mi NNE 12.7 mph 19.6 mph 0.22 in Rain Rain
3:06 AM 55.4 °F 55.4 °F 100% 29.89 in 2.5 mi NNE 10.4 mph 23.0 mph 0.05 in Rain Heavy Rain
3:14 AM 55.4 °F 55.4 °F 100% 29.90 in 4.0 mi NE 8.1 mph - 0.06 in Rain Light Rain
3:53 AM 55.9 °F 55.0 °F 97% 29.88 in 9.0 mi NE 11.5 mph 17.3 mph 0.12 in Rain Light Rain
4:37 AM 55.4 °F 53.6 °F 94% 29.89 in 5.0 mi North 11.5 mph 17.3 mph 0.04 in Rain Rain
4:53 AM 55.9 °F 54.0 °F 93% 29.89 in 6.0 mi North 11.5 mph 17.3 mph 0.06 in Rain Rain
5:21 AM 55.4 °F 55.4 °F 100% 29.95 in 2.0 mi NW 8.1 mph - 0.10 in Rain Rain
5:32 AM 55.4 °F 55.4 °F 100% 29.91 in 1.5 mi North 11.5 mph 20.7 mph 0.22 in Rain Heavy Rain
5:38 AM 55.4 °F 55.4 °F 100% 29.91 in 3.0 mi North 10.4 mph 20.7 mph 0.24 in Rain Rain
5:53 AM 55.9 °F 55.0 °F 97% 29.92 in 9.0 mi North 8.1 mph - 0.24 in Rain Light Rain
6:53 AM 57.0 °F 55.9 °F 96% 29.95 in 10.0 mi North 5.8 mph - 0.00 in   Overcast
7:53 AM 57.9 °F 55.9 °F 93% 29.95 in 10.0 mi NNW 8.1 mph 19.6 mph 0.05 in Rain Light Rain
8:53 AM 57.9 °F 55.9 °F 93% 29.96 in 10.0 mi North 9.2 mph - 0.02 in Rain Light Rain
9:53 AM 59.0 °F 57.0 °F 93% 29.93 in 10.0 mi North 17.3 mph 23.0 mph 0.00 in Rain Light Rain
10:53 AM 60.1 °F 57.0 °F 90% 29.95 in 10.0 mi NNE 9.2 mph 16.1 mph 0.00 in   Overcast
11:53 AM 60.1 °F 57.0 °F 90% 29.91 in 10.0 mi NNE 10.4 mph - 0.00 in   Clear
12:53 PM 62.1 °F 57.9 °F 86% 29.89 in 10.0 mi WSW 4.6 mph - N/A   Partly Cloudy
1:21 PM 64.4 °F 57.2 °F 77% 29.89 in 10.0 mi WSW 3.5 mph - N/A   Mostly Cloudy
1:53 PM 63.0 °F 57.9 °F 84% 29.89 in 10.0 mi Calm Calm - N/A   Overcast
2:53 PM 63.0 °F 57.9 °F 84% 29.89 in 10.0 mi WSW 4.6 mph - N/A   Overcast
3:40 PM 64.4 °F 57.2 °F 77% 29.93 in 10.0 mi ESE 5.8 mph - N/A   Overcast
3:53 PM 63.0 °F 57.9 °F 84% 29.92 in 10.0 mi East 4.6 mph - N/A   Scattered Clouds
4:53 PM 62.1 °F 57.0 °F 84% 29.94 in 10.0 mi SE 3.5 mph - N/A   Partly Cloudy
5:27 PM 62.6 °F 57.2 °F 82% 29.96 in 10.0 mi SW 5.8 mph - N/A   Mostly Cloudy
5:53 PM 61.0 °F 57.0 °F 87% 29.95 in 10.0 mi WSW 10.4 mph - N/A   Mostly Cloudy
6:35 PM 60.8 °F 55.4 °F 82% 29.97 in 10.0 mi WSW 6.9 mph - N/A   Overcast
6:53 PM 60.1 °F 55.9 °F 86% 29.98 in 10.0 mi SW 8.1 mph - N/A   Overcast
7:09 PM 59.0 °F 55.4 °F 88% 29.96 in 10.0 mi WSW 8.1 mph - N/A   Mostly Cloudy
7:53 PM 57.9 °F 55.9 °F 93% 29.99 in 10.0 mi SW 8.1 mph - N/A   Mostly Cloudy
8:53 PM 55.0 °F 54.0 °F 96% 30.01 in 10.0 mi WSW 9.2 mph - N/A   Scattered Clouds
9:53 PM 54.0 °F 53.1 °F 97% 30.03 in 10.0 mi Calm Calm - N/A   Clear
10:48 PM 48.2 °F 48.2 °F 100% 30.01 in 1.8 mi Calm Calm - N/A   Clear
10:53 PM 48.9 °F 48.9 °F 100% 30.01 in 0.8 mi Calm Calm - N/A   Clear
11:08 PM 48.2 °F 48.2 °F 100% 30.02 in 2.0 mi SE 4.6 mph - N/A   Clear
11:15 PM 48.2 °F 48.2 °F 100% 30.03 in 7.0 mi South 4.6 mph - N/A   Clear
11:53 PM 48.9 °F 48.9 °F 100% 30.03 in 8.0 mi WSW 4.6 mph - N/A   Clear